Vorticity
7 8 8 8 8 8 8 8 8 8 8 8 8 9 9 9 9 9 9 9 9 9 8 8 8 8 8 8 7 7 7 7 6 6 6 7 7 8 8 9 10 10 10 9 9 9 9 9 10 9 8 6 7 8 9 10 9 8 6 5 5 6 7 8 9 10 11 13 13
7 7 7 8 8 8 8 8 8 8 8 9 9 9 9 10 9 9 9 9 9 8 8 8 8 8 7 7 7 6 6 6 6 7 7 8 8 9 10 10 10 10 9 9 9 9 9 9 9 8 7 6 6 7 7 8 7 6 5 4 5 7 8 10 11 12 14 14 14
7 7 7 8 8 8 8 8 8 8 9 9 9 9 9 10 9 9 9 9 8 8 8 7 7 7 7 6 6 6 6 6 7 7 8 9 10 10 11 11 10 10 9 8 8 9 9 9 8 8 7 7 6 6 6 6 6 6 5 5 6 8 11 13 14 15 16 16 15
7 7 7 8 8 8 8 8 9 9 9 9 9 9 9 9 9 8 8 8 7 7 7 6 6 6 6 6 6 6 7 7 8 9 9 10 11 11 11 10 10 10 9 9 9 9 9 9 9 8 7 6 6 7 7 7 7 7 8 8 10 12 14 16 16 17 16 15 13
7 7 7 8 8 8 8 8 9 9 9 9 9 9 9 8 8 7 7 7 6 6 6 6 5 6 6 6 6 7 8 8 9 10 11 11 11 11 10 10 9 9 9 9 10 10 9 8 7 7 6 6 7 7 8 8 9 10 11 12 14 15 16 17 17 16 15 13 11
7 7 8 8 8 8 8 8 9 8 8 9 8 8 8 7 7 6 6 6 5 5 5 5 5 5 6 6 7 8 9 10 11 11 12 11 11 10 10 10 9 9 9 10 10 10 9 6 6 6 7 7 8 9 9 10 11 12 13 14 15 16 16 16 16 14 12 10 9
7 8 8 8 8 8 8 8 8 8 7 7 7 7 6 6 6 6 5 5 5 5 5 5 6 6 7 8 9 10 11 11 12 12 12 11 11 10 10 10 9 9 9 9 8 8 7 6 6 7 8 9 10 10 11 12 12 13 14 14 15 15 15 15 13 12 10 9 8
8 8 8 7 7 7 7 6 6 6 6 6 5 5 5 5 5 5 5 5 5 5 6 6 7 8 9 9 10 11 12 12 12 12 11 11 10 10 10 10 9 9 9 8 7 7 7 7 8 9 9 10 11 11 12 13 13 14 14 14 14 14 14 13 11 10 9 8 9
8 7 7 7 6 6 6 5 5 5 5 4 4 5 5 5 5 5 5 5 6 6 7 7 8 9 10 11 12 12 12 12 12 11 11 10 10 10 10 10 9 9 8 8 8 8 8 9 10 10 11 11 12 12 12 13 13 13 13 13 13 13 12 11 10 9 9 9 11
7 7 6 6 5 5 5 4 4 4 4 4 5 5 5 5 5 5 6 6 7 7 8 9 10 11 12 13 13 13 12 12 11 10 10 10 10 9 9 9 8 8 8 8 9 9 10 10 11 11 12 12 12 12 12 12 12 12 13 13 12 12 11 10 10 10 10 11 12
6 6 5 5 5 4 4 4 4 4 5 5 5 6 6 6 6 6 7 7 8 9 10 10 11 12 13 13 13 12 11 11 10 10 9 9 9 9 9 8 9 9 9 9 10 10 11 11 11 12 12 12 12 12 12 12 12 12 12 13 12 12 11 11 11 11 12 13 13
5 5 5 4 4 4 4 5 5 5 6 6 7 7 7 7 7 8 8 9 9 10 11 12 13 13 13 12 12 11 10 10 9 9 9 9 9 9 9 9 9 10 10 10 11 11 11 11 12 12 12 12 12 12 12 12 12 13 13 13 12 12 12 11 12 12 13 13 12
4 4 5 5 5 5 5 6 6 6 7 7 8 8 8 9 9 9 10 10 11 12 12 13 13 13 12 12 11 10 10 9 9 9 9 9 9 9 9 10 10 10 10 11 11 11 11 11 12 12 12 12 12 12 12 13 13 13 13 13 13 12 12 12 13 13 13 12 11
4 5 5 5 6 6 6 7 7 7 8 8 9 9 9 10 10 11 11 12 12 13 13 13 13 12 12 11 10 10 9 9 9 9 9 9 9 10 10 10 10 11 11 11 11 11 11 12 12 12 12 12 12 13 13 13 14 14 14 13 13 13 13 13 13 12 12 10 9
5 5 6 6 7 7 7 8 8 8 8 9 9 10 10 11 12 12 13 13 13 13 13 12 12 11 11 10 10 9 9 9 9 9 9 10 10 10 11 10 11 11 11 11 11 12 12 12 12 12 13 13 13 13 14 14 14 14 14 14 14 14 13 13 12 11 10 8 7
6 7 7 7 8 8 8 8 8 8 9 9 10 11 12 12 13 14 14 14 14 13 12 12 11 10 10 10 10 9 9 9 9 10 10 11 11 11 11 11 11 11 11 11 12 12 12 13 13 13 13 13 14 14 14 15 15 15 15 14 14 13 13 12 10 9 8 7 7
7 8 8 8 8 8 8 8 9 9 9 10 11 12 13 13 14 14 14 14 13 12 12 11 10 10 9 9 9 9 9 9 10 10 11 11 11 11 11 11 11 11 11 11 12 12 12 13 13 13 13 14 14 14 15 15 15 15 14 14 13 12 10 9 8 7 7 8 9
8 8 8 8 8 8 8 9 9 10 10 11 12 13 14 14 14 14 14 13 12 12 11 10 10 10 9 9 9 9 10 10 11 11 12 11 11 11 11 11 11 11 12 12 12 13 13 13 13 13 14 14 14 15 15 14 14 13 12 11 10 9 8 7 7 7 8 9 10
8 8 8 8 8 9 9 10 10 11 11 12 13 14 14 14 14 13 13 13 12 11 11 10 10 10 9 9 9 10 11 11 12 12 12 11 11 11 11 11 11 12 12 13 13 13 13 13 14 14 14 14 14 13 13 12 11 10 9 8 8 7 7 7 8 9 10 10 10
9 9 9 9 10 10 10 11 11 12 13 13 14 14 14 14 13 13 12 12 11 11 10 10 9 9 10 10 10 11 12 12 12 12 11 11 11 11 11 11 12 12 13 13 13 13 13 13 13 13 13 12 11 11 10 9 8 8 7 7 7 7 8 9 10 11 11 11 10
11 11 11 11 11 11 11 12 12 13 14 14 15 14 14 13 13 12 12 11 10 10 10 10 10 10 10 11 12 12 13 12 12 11 10 10 11 11 11 12 12 12 13 13 13 13 13 13 12 12 11 10 9 8 8 7 7 7 7 7 8 9 10 11 12 11 11 10 8
12 12 12 11 12 12 12 13 13 14 14 15 15 14 13 12 12 11 11 10 10 10 10 10 10 11 12 13 13 13 12 11 11 10 10 10 11 11 12 12 12 12 12 12 12 12 11 11 11 10 9 8 8 7 7 7 7 8 8 9 10 11 12 13 12 11 10 8 7
13 13 12 12 12 13 13 13 14 15 15 15 14 13 12 11 11 10 10 10 10 10 10 11 12 13 13 14 13 12 11 10 10 10 10 11 11 11 11 11 11 11 10 10 10 10 9 9 9 8 8 7 7 7 7 8 9 9 10 12 13 13 13 12 11 9 8 7 6
13 13 13 13 13 14 14 14 15 15 15 14 13 12 11 11 10 10 10 10 10 11 12 13 13 14 13 13 12 11 10 10 10 10 10 10 10 10 10 10 9 9 9 8 8 8 8 8 8 7 7 7 8 8 9 10 11 12 13 13 13 13 12 11 9 8 7 6 6
13 13 13 14 14 14 14 15 15 14 13 12 11 11 10 10 10 10 10 10 11 12 13 13 13 13 12 11 10 10 10 10 10 10 9 9 9 9 8 8 8 8 7 7 7 7 7 7 7 7 8 8 9 10 11 12 13 14 14 14 13 11 10 9 8 7 7 7 7
14 14 14 14 14 14 14 14 13 12 11 11 10 10 10 10 10 10 11 12 12 13 13 13 12 11 11 10 9 9 10 10 9 9 9 8 8 8 7 7 7 7 7 7 7 7 8 8 8 9 9 10 11 12 13 14 14 14 13 12 11 9 8 8 7 7 7 8 8
14 15 14 14 14 13 13 12 11 11 10 10 10 10 10 10 11 11 12 13 13 13 13 12 11 10 10 10 10 9 9 9 9 8 8 8 7 7 7 7 7 7 7 8 8 9 9 10 10 10 11 12 13 13 14 14 14 13 11 10 9 8 8 8 8 8 8 9 10
15 14 14 13 13 12 11 11 10 10 10 10 10 10 10 11 12 13 13 13 13 12 12 11 11 10 10 10 10 9 9 9 8 8 8 8 8 8 8 8 8 9 9 9 10 10 11 11 12 12 13 13 14 14 13 13 11 10 9 8 8 8 8 8 9 9 10 10 11
14 13 13 12 11 11 10 10 10 10 10 10 11 11 12 13 13 13 13 13 12 12 11 11 11 11 10 10 10 10 9 9 9 9 9 9 9 10 10 10 10 10 11 11 11 12 12 12 13 13 14 14 13 13 12 10 9 8 8 8 8 8 9 9 9 10 11 11 12
13 12 12 11 11 11 11 11 11 11 11 11 12 13 13 13 13 13 13 12 12 12 11 11 11 11 11 10 10 10 10 11 11 11 11 11 11 11 11 11 11 12 12 12 12 13 13 13 13 13 13 13 12 11 10 8 8 7 8 8 8 9 9 9 10 11 11 12 13
12 11 11 11 11 11 11 11 11 12 12 13 13 13 13 13 13 13 12 12 12 12 12 12 11 11 11 11 11 11 12 12 12 12 12 12 12 12 12 12 12 12 12 12 13 13 13 13 13 13 12 12 11 9 8 8 8 8 8 8 9 9 9 10 10 11 12 13 13
11 11 11 11 11 12 12 12 12 13 13 14 14 13 13 13 12 12 12 12 12 12 12 12 12 12 12 12 12 12 12 12 12 12 12 11 11 11 11 12 12 12 12 12 12 12 12 12 12 12 11 10 9 9 8 8 8 8 8 8 9 9 9 10 10 11 12 13 13
11 11 11 12 12 12 12 13 13 13 14 14 13 13 13 12 12 12 12 12 12 12 12 12 12 12 12 12 12 11 11 11 11 11 10 11 10 11 11 11 11 11 11 11 11 11 11 11 11 11 10 10 9 8 8 8 8 8 8 8 8 8 9 9 10 10 11 12 13
11 11 12 12 12 13 13 13 14 14 13 13 13 13 13 12 12 12 12 12 12 12 12 12 12 12 11 11 11 10 10 10 9 9 9 9 10 10 10 10 10 11 11 11 11 11 11 11 10 10 9 9 9 8 8 8 8 8 8 8 7 7 8 8 9 9 10 11 12
11 11 12 12 13 13 13 14 14 13 13 13 13 13 12 12 12 12 12 12 12 11 11 11 10 10 10 9 9 9 8 8 8 8 9 9 9 9 9 9 10 10 11 11 11 11 10 10 10 9 9 9 9 8 8 8 8 8 7 7 7 7 7 7 7 8 9 10 10
11 12 12 13 13 13 14 13 13 13 13 13 13 12 12 12 12 12 12 12 11 10 10 9 9 8 8 8 7 7 8 7 7 8 8 8 9 9 9 9 9 10 10 11 11 10 10 10 10 9 9 9 9 8 8 8 7 7 7 6 6 6 6 6 6 6 7 8 9
12 12 13 13 13 13 13 13 13 13 13 13 12 12 12 12 12 11 11 10 9 9 8 8 7 7 7 7 7 7 7 7 7 7 7 8 8 9 9 9 9 10 10 11 11 10 10 10 10 9 9 9 9 8 8 8 7 7 6 6 6 5 5 5 5 6 6 7 8
12 13 13 13 13 13 13 13 13 13 13 13 12 12 12 11 11 10 9 8 8 7 7 7 6 6 6 6 6 6 6 6 6 7 7 7 8 8 8 9 9 9 10 11 11 11 11 11 10 10 10 9 9 8 8 8 7 7 7 6 6 5 5 5 6 6 6 7 7
12 13 13 13 13 13 13 13 13 13 13 12 12 11 11 10 9 9 8 7 7 6 6 6 6 5 5 5 5 5 6 6 6 6 7 7 7 8 9 9 9 9 10 11 11 11 11 11 11 11 10 10 9 9 8 8 7 7 7 6 6 5 6 6 6 7 7 7 8
12 13 13 13 14 14 13 13 13 13 12 11 11 10 9 9 8 7 7 6 6 5 5 5 5 5 5 5 5 5 5 6 6 6 7 7 7 8 8 9 9 9 9 11 11 11 12 12 12 11 11 10 10 9 9 8 8 7 7 6 6 6 6 6 7 7 8 9 9
12 13 13 14 14 14 13 13 12 12 11 10 10 9 8 8 7 6 6 5 5 5 5 4 5 5 5 5 5 5 6 6 6 6 6 6 7 7 8 8 8 8 9 10 11 11 12 12 12 12 11 11 10 10 9 9 8 8 7 7 6 6 6 6 7 8 9 10 10
Height
5780 5780 5780 5781 5781 5781 5781 5781 5781 5781 5781 5781 5782 5782 5782 5782 5781 5781 5781 5781 5781 5780 5780 5780 5780 5779 5779 5778 5778 5777 5777 5776 5776 5775 5775 5775 5774 5774 5773 5772 5772 5771 5770 5770 5769 5768 5767 5767 5766 5766 5765 5763 5762 5761 5760 5759 5759 5758 5757 5756 5756 5755 5754 5753 5753 5752 5751 5750 5749
5778 5778 5778 5778 5778 5778 5778 5778 5778 5778 5778 5778 5778 5778 5779 5779 5779 5778 5778 5778 5778 5778 5777 5777 5777 5776 5776 5775 5775 5775 5774 5774 5773 5773 5772 5772 5771 5770 5770 5769 5769 5768 5768 5767 5766 5765 5765 5764 5763 5763 5762 5761 5760 5759 5758 5757 5756 5755 5755 5754 5753 5752 5752 5751 5750 5749 5748 5747 5746
5775 5775 5775 5775 5775 5775 5775 5775 5775 5775 5775 5775 5775 5775 5775 5775 5775 5775 5775 5775 5775 5775 5775 5774 5774 5773 5773 5773 5772 5772 5771 5771 5770 5770 5769 5769 5768 5768 5767 5766 5766 5765 5765 5764 5763 5763 5762 5761 5761 5760 5759 5758 5757 5756 5755 5754 5753 5752 5751 5750 5750 5749 5749 5748 5747 5746 5745 5744 5744
5772 5772 5772 5772 5772 5772 5772 5772 5772 5772 5772 5772 5772 5772 5772 5772 5773 5773 5772 5772 5772 5772 5772 5771 5771 5770 5770 5770 5770 5769 5769 5768 5768 5767 5766 5766 5765 5765 5764 5764 5763 5763 5763 5762 5761 5760 5759 5758 5758 5757 5756 5755 5755 5754 5752 5751 5750 5749 5748 5747 5747 5746 5745 5745 5744 5743 5742 5741 5741
5769 5769 5769 5769 5770 5770 5770 5770 5770 5769 5769 5769 5769 5769 5769 5770 5770 5770 5770 5770 5769 5769 5769 5769 5768 5768 5767 5767 5767 5766 5766 5765 5765 5764 5764 5763 5763 5762 5761 5761 5760 5760 5759 5758 5757 5757 5756 5755 5754 5753 5753 5752 5751 5750 5749 5748 5747 5746 5745 5744 5743 5743 5742 5741 5740 5740 5739 5739 5738
5766 5766 5766 5766 5767 5767 5767 5767 5767 5766 5766 5766 5766 5766 5766 5767 5767 5767 5767 5766 5766 5766 5766 5765 5765 5765 5765 5764 5764 5763 5763 5762 5762 5761 5761 5760 5760 5759 5759 5758 5757 5756 5756 5755 5754 5754 5754 5753 5751 5750 5749 5748 5747 5746 5745 5745 5744 5743 5742 5741 5741 5740 5739 5738 5738 5737 5736 5736 5735
5763 5763 5764 5764 5764 5764 5764 5764 5764 5764 5764 5764 5764 5764 5764 5764 5764 5764 5764 5764 5763 5763 5763 5763 5762 5762 5762 5761 5761 5760 5760 5760 5759 5759 5758 5757 5757 5756 5755 5755 5754 5753 5752 5752 5751 5750 5750 5749 5748 5746 5745 5745 5744 5743 5742 5742 5741 5740 5740 5739 5738 5738 5737 5736 5735 5734 5734 5733 5733
5760 5760 5760 5761 5761 5761 5761 5761 5761 5761 5761 5761 5761 5761 5761 5761 5761 5761 5761 5761 5760 5760 5760 5760 5759 5759 5759 5758 5758 5757 5757 5757 5756 5755 5755 5755 5754 5753 5752 5752 5751 5750 5750 5749 5748 5747 5747 5745 5745 5744 5743 5742 5741 5740 5739 5739 5738 5737 5737 5736 5735 5734 5734 5733 5732 5731 5731 5730 5730
5757 5757 5758 5758 5758 5758 5758 5758 5758 5758 5758 5758 5758 5758 5758 5758 5758 5758 5758 5758 5758 5757 5757 5757 5756 5756 5755 5755 5755 5755 5754 5754 5753 5753 5752 5751 5751 5750 5750 5749 5748 5748 5747 5746 5745 5744 5743 5742 5742 5741 5740 5739 5738 5737 5736 5736 5735 5734 5734 5733 5732 5731 5731 5730 5730 5729 5728 5728 5727
5755 5755 5755 5755 5755 5755 5755 5755 5755 5755 5755 5755 5755 5755 5755 5755 5755 5755 5755 5755 5755 5754 5754 5754 5753 5753 5752 5752 5752 5751 5751 5751 5750 5750 5749 5749 5748 5747 5747 5746 5745 5745 5744 5743 5742 5741 5740 5739 5738 5738 5737 5736 5735 5734 5734 5733 5732 5731 5731 5730 5730 5729 5728 5728 5727 5726 5726 5725 5725
5751 5752 5752 5752 5752 5752 5753 5753 5753 5753 5753 5753 5752 5752 5752 5752 5752 5752 5752 5752 5751 5751 5751 5750 5750 5750 5750 5749 5749 5749 5748 5748 5747 5747 5746 5746 5745 5745 5744 5743 5742 5741 5740 5740 5739 5738 5737 5736 5735 5735 5734 5733 5733 5732 5731 5730 5730 5729 5728 5728 5727 5727 5726 5725 5725 5724 5723 5723 5722
5749 5749 5749 5749 5749 5750 5750 5750 5750 5750 5750 5750 5750 5750 5749 5749 5749 5749 5749 5749 5749 5748 5748 5748 5747 5747 5746 5746 5746 5745 5745 5745 5744 5744 5743 5743 5742 5742 5741 5740 5740 5739 5738 5737 5736 5735 5735 5734 5733 5732 5732 5731 5730 5729 5728 5728 5727 5726 5726 5725 5725 5724 5724 5723 5722 5721 5721 5720 5720
5746 5746 5746 5746 5746 5747 5747 5747 5747 5747 5747 5747 5746 5746 5746 5746 5746 5746 5746 5745 5745 5745 5745 5745 5744 5744 5744 5743 5743 5742 5742 5742 5741 5741 5740 5740 5740 5739 5738 5737 5737 5736 5735 5734 5734 5733 5732 5731 5730 5730 5729 5728 5728 5727 5726 5725 5725 5724 5723 5723 5722 5722 5721 5720 5720 5719 5718 5718 5717
5743 5743 5743 5743 5743 5744 5744 5744 5744 5744 5744 5744 5743 5743 5743 5743 5743 5743 5743 5742 5742 5742 5742 5742 5741 5741 5741 5740 5740 5740 5739 5739 5739 5738 5738 5737 5737 5736 5735 5735 5734 5733 5732 5731 5731 5730 5730 5729 5728 5727 5727 5726 5725 5725 5724 5723 5722 5721 5721 5720 5720 5719 5719 5718 5717 5717 5716 5715 5715
5740 5740 5740 5740 5740 5740 5740 5741 5741 5741 5741 5740 5740 5740 5740 5740 5740 5740 5740 5739 5739 5739 5739 5739 5739 5738 5738 5738 5737 5737 5736 5736 5736 5735 5735 5735 5734 5733 5733 5732 5731 5730 5730 5729 5728 5728 5727 5726 5725 5725 5724 5723 5723 5722 5721 5720 5720 5719 5718 5718 5717 5717 5716 5715 5715 5714 5714 5713 5712
5737 5737 5737 5737 5737 5737 5738 5738 5738 5738 5738 5737 5737 5737 5737 5736 5736 5736 5736 5736 5736 5736 5736 5736 5736 5735 5735 5735 5735 5734 5734 5734 5733 5733 5732 5732 5731 5730 5730 5729 5728 5728 5727 5726 5726 5725 5725 5724 5723 5722 5722 5721 5720 5720 5719 5718 5717 5717 5716 5715 5715 5714 5714 5713 5712 5712 5711 5710 5710
5734 5734 5734 5734 5735 5735 5735 5735 5735 5735 5735 5734 5734 5734 5734 5733 5733 5733 5733 5733 5733 5733 5733 5733 5733 5733 5732 5732 5732 5732 5731 5731 5730 5730 5730 5729 5729 5728 5727 5726 5726 5725 5725 5724 5723 5723 5722 5721 5720 5720 5719 5719 5718 5717 5717 5716 5715 5715 5714 5713 5712 5712 5711 5710 5710 5709 5708 5708 5707
5731 5731 5731 5731 5731 5731 5731 5731 5731 5731 5731 5731 5731 5730 5730 5730 5730 5730 5730 5730 5730 5730 5730 5730 5730 5730 5730 5730 5729 5729 5729 5728 5728 5727 5727 5726 5726 5725 5725 5724 5724 5723 5722 5722 5721 5720 5720 5719 5718 5718 5717 5716 5716 5715 5715 5714 5713 5712 5712 5711 5710 5710 5709 5708 5707 5706 5706 5705 5704
5728 5728 5728 5728 5728 5728 5729 5729 5728 5728 5728 5728 5728 5728 5727 5727 5727 5727 5727 5727 5727 5727 5727 5727 5727 5727 5727 5727 5726 5726 5726 5725 5725 5725 5724 5724 5723 5723 5722 5722 5721 5720 5720 5719 5719 5718 5717 5717 5716 5715 5715 5714 5713 5713 5712 5712 5711 5710 5710 5709 5708 5707 5706 5706 5705 5704 5703 5702 5701
5725 5725 5725 5725 5725 5725 5725 5725 5725 5725 5725 5725 5725 5725 5725 5724 5724 5725 5725 5725 5725 5725 5725 5725 5725 5725 5724 5724 5724 5723 5723 5723 5722 5722 5722 5721 5721 5720 5720 5719 5719 5718 5717 5717 5716 5715 5715 5714 5714 5713 5712 5712 5711 5711 5710 5710 5709 5708 5707 5707 5706 5705 5704 5703 5702 5701 5700 5700 5699
5721 5722 5722 5722 5722 5722 5722 5722 5722 5722 5722 5722 5722 5722 5722 5722 5722 5722 5722 5722 5722 5722 5722 5722 5722 5722 5721 5721 5721 5720 5720 5720 5720 5719 5719 5719 5718 5718 5717 5717 5716 5715 5715 5715 5714 5713 5713 5712 5711 5711 5710 5710 5709 5708 5708 5707 5706 5706 5705 5704 5703 5703 5702 5701 5700 5699 5698 5697 5696
5718 5718 5719 5719 5719 5719 5719 5719 5719 5719 5719 5719 5719 5719 5719 5719 5719 5719 5719 5719 5719 5719 5719 5719 5719 5719 5719 5718 5718 5718 5718 5717 5717 5717 5716 5716 5715 5715 5715 5714 5714 5713 5713 5712 5711 5711 5710 5710 5709 5709 5708 5707 5707 5706 5705 5705 5704 5703 5703 5702 5701 5700 5699 5698 5698 5697 5696 5695 5694
5715 5715 5715 5715 5715 5716 5716 5716 5716 5716 5716 5716 5716 5717 5717 5717 5717 5717 5716 5716 5716 5716 5716 5716 5716 5716 5716 5716 5715 5715 5715 5715 5714 5714 5714 5713 5713 5712 5712 5712 5711 5711 5710 5710 5709 5709 5708 5707 5707 5706 5706 5705 5705 5704 5703 5702 5702 5701 5700 5700 5699 5698 5697 5696 5695 5694 5693 5692 5691
5712 5712 5712 5712 5713 5713 5713 5713 5713 5714 5714 5714 5714 5714 5714 5714 5714 5714 5714 5714 5714 5714 5714 5714 5714 5714 5713 5713 5713 5713 5712 5712 5712 5711 5711 5711 5710 5710 5710 5709 5709 5708 5708 5707 5707 5706 5706 5705 5705 5704 5704 5703 5702 5701 5701 5700 5699 5699 5698 5697 5696 5695 5695 5694 5693 5692 5691 5690 5689
5709 5709 5709 5710 5710 5710 5710 5710 5711 5711 5711 5711 5711 5711 5711 5711 5711 5711 5711 5711 5711 5711 5711 5711 5711 5711 5711 5711 5710 5710 5710 5710 5710 5709 5709 5709 5708 5708 5707 5707 5706 5706 5705 5705 5705 5704 5704 5703 5702 5702 5701 5700 5700 5699 5698 5698 5697 5696 5695 5695 5694 5693 5692 5691 5691 5690 5689 5688 5686
5706 5706 5706 5707 5707 5707 5708 5708 5708 5708 5709 5709 5709 5709 5709 5709 5709 5709 5709 5709 5709 5709 5709 5709 5709 5709 5708 5708 5708 5708 5708 5707 5707 5707 5706 5706 5706 5705 5705 5705 5704 5704 5703 5703 5702 5702 5701 5701 5700 5700 5699 5698 5697 5697 5696 5695 5695 5694 5693 5692 5692 5691 5690 5689 5688 5687 5686 5685 5684
5703 5703 5704 5704 5704 5705 5705 5705 5706 5706 5706 5706 5706 5706 5706 5706 5706 5706 5706 5706 5706 5706 5706 5706 5706 5706 5706 5706 5706 5705 5705 5705 5705 5705 5704 5704 5704 5703 5703 5702 5702 5701 5701 5700 5700 5700 5699 5698 5698 5697 5696 5696 5695 5695 5694 5693 5692 5692 5691 5690 5690 5689 5688 5687 5686 5685 5684 5683 5682
5700 5701 5701 5701 5702 5702 5702 5703 5703 5703 5704 5704 5704 5704 5704 5704 5704 5704 5704 5704 5704 5704 5704 5704 5704 5704 5704 5704 5703 5703 5703 5703 5703 5702 5702 5701 5701 5701 5700 5700 5700 5699 5699 5698 5698 5697 5697 5696 5695 5695 5694 5694 5693 5692 5692 5691 5690 5690 5689 5688 5687 5686 5686 5685 5684 5683 5682 5680 5680
5698 5698 5699 5699 5700 5700 5700 5700 5701 5701 5701 5701 5701 5701 5701 5701 5701 5702 5702 5702 5702 5702 5702 5702 5702 5701 5701 5701 5701 5701 5701 5700 5700 5700 5700 5699 5699 5699 5698 5698 5697 5697 5696 5696 5695 5695 5694 5694 5693 5693 5692 5691 5690 5690 5689 5689 5688 5687 5687 5686 5685 5684 5684 5682 5681 5680 5680 5678 5677
5695 5696 5696 5697 5697 5697 5698 5698 5698 5698 5698 5699 5699 5699 5699 5699 5699 5699 5699 5699 5700 5700 5699 5699 5699 5699 5699 5699 5699 5699 5698 5698 5698 5698 5697 5697 5697 5696 5696 5695 5695 5695 5694 5694 5693 5692 5692 5691 5691 5690 5690 5689 5688 5688 5687 5686 5686 5685 5685 5684 5683 5682 5681 5680 5679 5678 5677 5676 5675
5693 5694 5694 5695 5695 5695 5695 5695 5695 5696 5696 5696 5696 5696 5696 5697 5697 5697 5697 5697 5697 5697 5697 5697 5697 5697 5697 5697 5696 5696 5696 5696 5695 5695 5695 5695 5694 5694 5694 5693 5693 5692 5692 5691 5691 5690 5690 5689 5689 5688 5687 5687 5686 5685 5685 5684 5684 5683 5682 5681 5681 5680 5679 5678 5677 5676 5675 5674 5673
5691 5691 5692 5692 5692 5693 5693 5693 5693 5693 5694 5694 5694 5694 5694 5694 5695 5695 5695 5695 5695 5695 5695 5695 5695 5695 5695 5695 5694 5694 5694 5694 5693 5693 5693 5692 5692 5692 5691 5691 5690 5690 5690 5689 5689 5688 5687 5687 5686 5686 5685 5685 5684 5684 5683 5682 5681 5681 5680 5679 5679 5678 5677 5676 5675 5674 5673 5672 5671
5689 5689 5690 5690 5690 5690 5690 5691 5691 5691 5691 5691 5691 5692 5692 5692 5692 5692 5692 5692 5692 5692 5693 5693 5693 5693 5692 5692 5692 5692 5692 5691 5691 5691 5690 5690 5690 5690 5689 5689 5688 5688 5687 5687 5686 5686 5685 5685 5684 5684 5683 5683 5682 5681 5680 5680 5679 5679 5678 5677 5676 5675 5675 5674 5673 5672 5671 5670 5669
5687 5687 5687 5688 5688 5688 5688 5688 5689 5689 5689 5689 5689 5690 5690 5690 5690 5690 5690 5690 5690 5690 5690 5690 5690 5690 5690 5690 5690 5690 5690 5690 5689 5689 5688 5688 5688 5687 5687 5686 5686 5685 5685 5685 5684 5684 5683 5683 5682 5681 5681 5680 5680 5679 5678 5678 5677 5676 5675 5675 5674 5673 5672 5671 5670 5670 5668 5667 5666
5685 5685 5685 5685 5685 5686 5686 5686 5686 5687 5687 5687 5687 5688 5688 5688 5688 5688 5688 5688 5688 5688 5688 5688 5688 5688 5688 5688 5688 5688 5688 5687 5687 5687 5686 5686 5685 5685 5685 5684 5684 5683 5683 5682 5682 5681 5681 5680 5680 5679 5679 5678 5677 5677 5676 5675 5675 5674 5674 5673 5672 5671 5670 5669 5668 5667 5666 5665 5664
5682 5683 5683 5683 5684 5684 5684 5684 5684 5685 5685 5685 5685 5685 5686 5686 5686 5686 5686 5686 5686 5686 5686 5686 5686 5686 5686 5686 5686 5686 5685 5685 5685 5685 5684 5684 5683 5683 5682 5682 5681 5681 5680 5680 5680 5679 5679 5678 5677 5677 5676 5676 5675 5674 5674 5673 5673 5672 5671 5670 5670 5669 5668 5667 5666 5665 5664 5663 5662
5680 5680 5680 5681 5681 5681 5682 5682 5682 5683 5683 5683 5683 5684 5684 5684 5684 5684 5684 5684 5685 5685 5685 5685 5685 5685 5684 5684 5684 5684 5683 5683 5683 5682 5682 5682 5681 5681 5680 5680 5679 5679 5678 5678 5677 5677 5676 5676 5675 5675 5674 5673 5673 5672 5671 5671 5670 5670 5669 5668 5668 5667 5666 5665 5664 5663 5662 5661 5660
5678 5678 5678 5679 5679 5680 5680 5680 5680 5680 5681 5681 5681 5681 5681 5682 5682 5682 5682 5682 5682 5683 5683 5683 5683 5682 5682 5682 5682 5681 5681 5681 5680 5680 5680 5680 5679 5679 5678 5678 5677 5677 5676 5675 5675 5675 5674 5673 5673 5672 5671 5671 5670 5670 5669 5669 5668 5667 5667 5666 5665 5664 5663 5662 5661 5660 5660 5659 5657
5675 5676 5676 5677 5677 5677 5678 5678 5678 5679 5679 5679 5679 5679 5680 5680 5680 5680 5680 5680 5680 5680 5681 5681 5680 5680 5680 5680 5680 5680 5679 5679 5679 5678 5678 5677 5677 5676 5676 5675 5675 5675 5674 5673 5673 5672 5671 5671 5670 5670 5669 5669 5668 5668 5667 5666 5666 5665 5665 5664 5663 5662 5661 5660 5659 5658 5657 5656 5655
5673 5674 5674 5675 5675 5675 5676 5676 5676 5676 5677 5677 5677 5678 5678 5678 5678 5678 5678 5679 5679 5679 5679 5679 5679 5678 5678 5678 5678 5677 5677 5677 5676 5676 5675 5675 5675 5674 5674 5673 5673 5672 5672 5671 5670 5670 5669 5669 5668 5667 5667 5666 5666 5665 5665 5664 5663 5663 5662 5661 5660 5660 5659 5658 5657 5656 5655 5654 5653
5671 5672 5672 5673 5673 5673 5674 5674 5675 5675 5675 5675 5675 5676 5676 5676 5676 5676 5676 5677 5677 5677 5676 5676 5676 5676 5676 5676 5675 5675 5675 5675 5674 5674 5673 5673 5673 5672 5672 5671 5670 5670 5669 5669 5668 5667 5667 5666 5666 5665 5665 5664 5663 5663 5662 5661 5661 5660 5660 5659 5658 5657 5656 5655 5654 5653 5652 5651 5650